Location: Palomar Mountain Lodge
(33.3110°N, 116.8495°W)
Time: 02:41:48
(UTC-07:00)

CZ-3 Stage 3 - Pass Details

Date: 12 July 2018
Orbit: 418 x 35090 km, 30.4° (Epoch: 20 July)

Event Time Altitude Azimuth Distance (km) Brightness Sun altitude
Rises 20:31:32 0° 242° (WSW) 4,696 8.0 -6.8°
Reaches altitude 10° 20:36:06 10° 231° (SW) 2,393 6.3 -7.6°
Maximum altitude 20:39:46 27° 171° (S) 955 3.7 -8.3°
Enters shadow 20:41:54 11° 110° (ESE) 1,406 4.3 -8.6°
